Change the Weather History Date:

Friday, July 27, 2012

  Actual Average Record
Temperature  
Mean Temperature 74 °F 74 °F  
Max Temperature 85 °F 89 °F 103 °F (1947)
Min Temperature 63 °F 60 °F 51 °F (1963)
Degree Days  
Heating Degree Days 0 0  
Month to date heating degree days 0 12  
Since 1 June heating degree days 35 108  
Since 1 July heating degree days 0 12  
Cooling Degree Days 9 10  
Month to date cooling degree days 361 218  
Year to date cooling degree days 548 320  
Since 1 June cooling degree days 514 303  
Growing Degree Days 24 (Base 50)    
Moisture  
Dew Point 50 °F    
Average Humidity 46    
Maximum Humidity 60    
Minimum Humidity 32    
Precipitation  
Precipitation T in 0.04 in 0.81 in (1998)
Month to date precipitation 0.39 1.18  
Year to date precipitation 4.78 9.16  
Snow  
Snow 0.00 in 0.00 in T in (1998)
Month to date snowfall 0.0 0.0  
Since 1 June snowfall T 0.0  
Since 1 July snowfall 0.0 0.0  
Snow Depth 0.00 in    
Sea Level Pressure  
Sea Level Pressure 29.92 in    
Wind  
Wind Speed 11 mph (WNW)    
Max Wind Speed 37 mph    
Max Gust Speed 47 mph    
Visibility 10 miles    
Events Rain , Thunderstorm    
T = Trace of Precipitation, MM = Missing Value Source: NWS Daily Summary

Daily Weather History Graph

Daily Weather History Graph

Search for Another Location

Airport or City:

Trip Planner

Search our weather history database for the weather conditions in past years. The results will help you decide how hot, cold, wet, or windy it might be!

Date:

Astronomy

Jul. 27, 2012 Rise Set
Actual Time 5:52 AM MDT 8:48 PM MDT
Civil Twilight 5:16 AM MDT 9:23 PM MDT
Nautical Twilight 4:32 AM MDT 10:08 PM MDT
Astronomical Twilight 3:38 AM MDT 11:01 PM MDT
Moon 3:50 PM MDT (7/27) 12:27 AM MDT (7/27)
Length of Visible Light 16h 06m
Length of Day
14h 56m
Waxing Gibbous, 66% of the Moon is Illuminated
Jul 27
Waxing Gibbous
Aug 1
Full
Aug 9
Last Quarter
Aug 17
New
Aug 24
First Quarter

Hourly Weather History & Observations

Time (MDT) Temp. Heat Index Dew Point Humidity Pressure Visibility Wind Dir Wind Speed Gust Speed Precip Events Conditions
12:53 AM 73.0 °F - 48.9 °F 42% 29.91 in 10.0 mi ENE 6.9 mph - N/A   Clear
1:53 AM 72.0 °F - 48.9 °F 44% 29.88 in 10.0 mi East 10.4 mph - N/A   Clear
2:53 AM 68.0 °F - 48.9 °F 50% 29.88 in 10.0 mi NNE 5.8 mph - N/A   Clear
3:53 AM 66.0 °F - 48.9 °F 54% 29.88 in 10.0 mi NNE 5.8 mph - N/A   Clear
4:53 AM 64.0 °F - 48.9 °F 58% 29.88 in 10.0 mi NNE 6.9 mph - N/A   Clear
5:53 AM 63.0 °F - 48.9 °F 60% 29.89 in 10.0 mi North 6.9 mph - N/A   Partly Cloudy
6:53 AM 64.9 °F - 48.9 °F 56% 29.90 in 10.0 mi North 5.8 mph - N/A   Partly Cloudy
7:53 AM 66.0 °F - 50.0 °F 56% 29.91 in 10.0 mi SW 4.6 mph - N/A   Partly Cloudy
8:53 AM 66.9 °F - 51.1 °F 57% 29.93 in 10.0 mi WSW 9.2 mph - N/A   Scattered Clouds
9:53 AM 68.0 °F - 52.0 °F 56% 29.95 in 10.0 mi SW 8.1 mph - N/A   Mostly Cloudy
10:53 AM 68.0 °F - 53.1 °F 59% 29.95 in 10.0 mi SSW 5.8 mph - N/A   Mostly Cloudy
11:53 AM 71.1 °F - 55.0 °F 57% 29.91 in 10.0 mi NNE 13.8 mph - 0.00 in Rain Light Rain
12:53 PM 72.0 °F - 54.0 °F 53% 29.93 in 10.0 mi South 9.2 mph - 0.00 in   Mostly Cloudy
1:53 PM 80.1 °F 79.9 °F 53.1 °F 39% 29.88 in 10.0 mi ESE 4.6 mph - N/A   Partly Cloudy
2:53 PM 84.9 °F - 52.0 °F 32% 29.87 in 10.0 mi Variable 3.5 mph - N/A   Partly Cloudy
3:53 PM 84.9 °F 83.2 °F 53.1 °F 33% 29.88 in 10.0 mi Calm Calm - N/A Thunderstorm Thunderstorm
4:28 PM 75.2 °F - 51.8 °F 44% 30.03 in 10.0 mi WNW 31.1 mph 43.7 mph N/A Thunderstorm Unknown
4:53 PM 72.0 °F - 52.0 °F 49% 29.97 in 10.0 mi NW 28.8 mph 39.1 mph 0.00 in Rain , Thunderstorm Light Thunderstorms and Rain
5:32 PM 73.4 °F - 50.0 °F 44% 29.98 in 10.0 mi NE 12.7 mph - 0.00 in   Scattered Clouds
5:50 PM 82.4 °F - 44.6 °F 26% 29.95 in 10.0 mi East 16.1 mph - 0.00 in   Mostly Cloudy
5:53 PM 82.0 °F - 45.0 °F 27% 29.86 in 10.0 mi East 11.5 mph - 0.00 in   Mostly Cloudy
6:53 PM 77.0 °F - 53.1 °F 43% 29.91 in 10.0 mi WSW 24.2 mph 31.1 mph N/A   Scattered Clouds
7:53 PM 75.0 °F - 48.9 °F 40% 29.91 in 10.0 mi SW 21.9 mph 32.2 mph N/A   Scattered Clouds
8:53 PM 71.1 °F - 51.1 °F 49% 29.95 in 10.0 mi SW 24.2 mph 38.0 mph N/A   Scattered Clouds
9:53 PM 71.1 °F - 50.0 °F 47% 29.94 in 10.0 mi West 16.1 mph 19.6 mph N/A   Scattered Clouds
10:53 PM 72.0 °F - 48.9 °F 44% 29.99 in 10.0 mi West 16.1 mph - N/A   Partly Cloudy
11:53 PM 68.0 °F - 51.1 °F 55% 29.97 in 10.0 mi SW 11.5 mph - N/A   Partly Cloudy